User: anonymous
Location: Hepcat Sky Observatory
(29.9800°N, 95.6500°W)
Time: 01:15:57
(UTC-05:00)
Language:

Cosmos 2151 Rocket - Orbit

View from above orbital plane
View from above orbital plane
View from above satellite
View from above satellite

Ground track
Ground track

The orbit data is extracted from the following two-line orbital elements,

1 21423U 91042B   14232.46075910  .00000226  00000-0  27244-4 0  7757
2 21423 082.4941 205.3332 0018238 034.3577 082.0880 14.79226473250032
Epoch (UTC): 20 August 2014 11:03:29
Eccentricity: 0.0018238
inclination: 82.4941°
perigee height: 619 km
apogee height: 644 km
right ascension of ascending node: 205.3332°
argument of perigee: 34.3577°
revolutions per day: 14.79226473
mean anomaly at epoch: 82.0880°
orbit number at epoch: 25003

The dashed part of the orbit path shows where the satellite is in the earth's shadow,  

DLR